STARLINK-11081 [DTC] (60405 NORAD) Tracking and Keplerian Element Data

This shows tracking and keplerian element data for the satellite.

Feedback or suggestion? Click here.




ElementValue
Catalog60405
NameSTARLINK-11081 [DTC]
Epoch Orbit1114
Epoch Day286.85889833
Epoch Year2024
RAAN94.5774
Inclination53.1571
Eccentricity0.0001288
Argument of Perigee110.7984
Mean Anonmoly249.3172
Mean Motion15.69713452
Decay Rate-1.047E-05
L11 60405U 24141H 24286.85889833 -.00001047 00000+0 -37795-5 0 9990
L22 60405 53.1571 94.5774 0001288 110.7984 249.3172 15.69713452 11142



Live tracking and technical data element details for STARLINK-11081 [DTC] (NORAD 60405). STARLINK-11081 [DTC] can be tracked NOW for your location showing map with azimuth and elevation plus other details from your city location.







IsCatalogInMostPopularTable: catalog: 60405, numindb: 8
Update: records affected: 1



GetName: 60405 STARLINK-11081 [DTC]

Hit Count: updated at: Tue, 03 Dec 2024 03:12:22 GMT